Chehalis, WA

9:29 AM PDT on September 26, 2016 (GMT -0700)
Chehalis-Centralia

Weather History for KCLS - April, 2013

Change the Weather History Date:

Wednesday, April 10, 2013

  Actual Average (KOLM) Record (KOLM)
Temperature  
Mean Temperature 50 °F 47 °F  
Max Temperature 55 °F 58 °F 77 °F (1988)
Min Temperature 46 °F 37 °F 26 °F (1972)
Degree Days  
Heating Degree Days 14 18  
Month to date heating degree days 181  
Since 1 July heating degree days 4539  
Cooling Degree Days 0 0  
Month to date cooling degree days 0  
Year to date cooling degree days 0  
Moisture  
Dew Point 44 °F    
Average Humidity 75    
Maximum Humidity 100    
Minimum Humidity 58    
Precipitation  
Precipitation 0.21 in 0.12 in 0.69 in (1993)
Month to date precipitation 1.36  
Year to date precipitation 19.76  
Sea Level Pressure  
Sea Level Pressure 30.19 in    
Wind  
Wind Speed 9 mph (SW)    
Max Wind Speed 16 mph    
Max Gust Speed 25 mph    
Visibility 9 miles    
Events Rain    
T = Trace of Precipitation, MM = Missing Value Source: NWS Daily Summary

Daily Weather History Graph

Daily Weather History Graph

Search for Another Location

Airport or City:

Trip Planner

Search our weather history database for the weather conditions in past years. The results will help you decide how hot, cold, wet, or windy it might be!

Date:

Astronomy

Apr. 10, 2013 Rise Set
Actual Time 6:33 AM PDT 7:53 PM PDT
Civil Twilight 6:02 AM PDT 8:25 PM PDT
Nautical Twilight 5:24 AM PDT 9:03 PM PDT
Astronomical Twilight 4:43 AM PDT 9:43 PM PDT
Moon 6:30 AM PDT (4/10) 8:39 PM PDT (4/10)
Length of Visible Light 14h 23m
Length of Day
13h 20m
New Moon, 0% of the Moon is Illuminated
Apr 10
New Moon
Apr 18
First Quarter
Apr 25
Full
May 2
Last Quarter
May 9
New

Hourly Weather History & Observations

Time (PDT) Temp. Windchill Dew Point Humidity Pressure Visibility Wind Dir Wind Speed Gust Speed Precip Events Conditions
12:15 AM 51.8 °F - 44.6 °F 76% 30.22 in 10.0 mi South 9.2 mph - N/A   Overcast
12:35 AM 51.8 °F - 42.8 °F 71% 30.22 in 10.0 mi South 8.1 mph - N/A   Overcast
12:55 AM 51.8 °F - 42.8 °F 71% 30.20 in 10.0 mi South 9.2 mph - N/A   Overcast
1:15 AM 51.8 °F - 42.8 °F 71% 30.20 in 10.0 mi SSW 9.2 mph - N/A   Overcast
1:35 AM 51.8 °F - 42.8 °F 71% 30.20 in 10.0 mi South 8.1 mph - N/A   Overcast
1:55 AM 51.8 °F - 42.8 °F 71% 30.19 in 10.0 mi South 8.1 mph - N/A   Overcast
2:15 AM 51.8 °F - 42.8 °F 71% 30.19 in 10.0 mi South 9.2 mph - N/A   Overcast
2:35 AM 53.6 °F - 42.8 °F 67% 30.18 in 10.0 mi SSW 11.5 mph 19.6 mph N/A   Overcast
2:55 AM 53.6 °F - 42.8 °F 67% 30.17 in 10.0 mi SSW 12.7 mph - N/A   Overcast
3:15 AM 53.6 °F - 42.8 °F 67% 30.16 in 10.0 mi South 10.4 mph - N/A   Overcast
3:35 AM 53.6 °F - 42.8 °F 67% 30.17 in 10.0 mi South 10.4 mph 19.6 mph N/A   Overcast
3:55 AM 53.6 °F - 44.6 °F 72% 30.16 in 10.0 mi South 10.4 mph 17.3 mph N/A   Overcast
4:15 AM 53.6 °F - 44.6 °F 72% 30.15 in 10.0 mi South 9.2 mph - N/A   Overcast
4:35 AM 53.6 °F - 44.6 °F 72% 30.14 in 10.0 mi South 11.5 mph - N/A   Overcast
4:55 AM 53.6 °F - 44.6 °F 72% 30.13 in 10.0 mi South 11.5 mph 19.6 mph N/A   Overcast
5:15 AM 53.6 °F - 44.6 °F 72% 30.12 in 10.0 mi South 13.8 mph 20.7 mph N/A   Overcast
5:35 AM 53.6 °F - 44.6 °F 72% 30.11 in 10.0 mi South 15.0 mph 20.7 mph N/A   Overcast
5:55 AM 53.6 °F - 44.6 °F 72% 30.09 in 10.0 mi South 16.1 mph 21.9 mph N/A   Overcast
6:15 AM 51.8 °F - 46.4 °F 82% 30.09 in 10.0 mi South 12.7 mph 23.0 mph N/A   Overcast
6:35 AM 51.8 °F - 46.4 °F 82% 30.08 in 8.0 mi South 16.1 mph 23.0 mph N/A   Overcast
6:55 AM 51.8 °F - 46.4 °F 82% 30.08 in 5.0 mi South 13.8 mph 20.7 mph N/A   Haze
7:15 AM 51.8 °F - 46.4 °F 82% 30.05 in 5.0 mi South 15.0 mph 24.2 mph N/A   Haze
7:35 AM 51.8 °F - 46.4 °F 82% 30.04 in 7.0 mi South 13.8 mph 20.7 mph N/A   Overcast
7:55 AM 51.8 °F - 46.4 °F 82% 30.04 in 10.0 mi South 11.5 mph 17.3 mph N/A   Overcast
8:15 AM 53.6 °F - 48.2 °F 82% 30.02 in 5.0 mi South 12.7 mph - N/A   Haze
8:35 AM 51.8 °F - 48.2 °F 88% 30.04 in 2.0 mi SSW 10.4 mph 17.3 mph 0.02 in   Overcast
8:55 AM 50.0 °F - 48.2 °F 94% 30.04 in 3.0 mi South 12.7 mph 19.6 mph 0.08 in Rain Rain
9:15 AM 50.0 °F - 48.2 °F 94% 30.05 in 3.0 mi South 11.5 mph - 0.05 in Rain Light Rain
9:35 AM 50.0 °F - 48.2 °F 94% 30.06 in 3.0 mi South 9.2 mph - 0.11 in Rain Light Rain
10:15 AM 50.0 °F - 50.0 °F 100% 30.08 in 3.0 mi South 6.9 mph - N/A   Scattered Clouds
10:35 AM 51.8 °F - 50.0 °F 94% 30.08 in 2.5 mi SW 10.4 mph - 0.02 in Rain Light Rain
11:15 AM 51.8 °F - 48.2 °F 88% 30.12 in 3.0 mi WSW 4.6 mph 19.6 mph N/A Rain Light Rain
11:35 AM 50.0 °F - 46.4 °F 87% 30.13 in 4.0 mi NW 8.1 mph 17.3 mph N/A Rain Light Rain
11:55 AM 51.8 °F - 46.4 °F 82% 30.15 in 5.0 mi Calm Calm - N/A   Haze
12:15 PM 53.6 °F - 46.4 °F 77% 30.16 in 5.0 mi WNW 5.8 mph - N/A   Haze
12:35 PM 53.6 °F - 44.6 °F 72% 30.17 in 5.0 mi West 6.9 mph 20.7 mph N/A   Haze
12:55 PM 53.6 °F - 44.6 °F 72% 30.19 in 8.0 mi West 8.1 mph 17.3 mph N/A   Overcast
1:15 PM 53.6 °F - 44.6 °F 72% 30.19 in 10.0 mi West 11.5 mph 20.7 mph N/A   Overcast
1:35 PM 53.6 °F - 44.6 °F 72% 30.21 in 10.0 mi WNW 9.2 mph - N/A   Overcast
1:55 PM 53.6 °F - 44.6 °F 72% 30.21 in 10.0 mi West 10.4 mph 17.3 mph N/A   Mostly Cloudy
2:15 PM 53.6 °F - 42.8 °F 67% 30.22 in 10.0 mi WNW 9.2 mph 21.9 mph N/A   Scattered Clouds
2:35 PM 55.4 °F - 42.8 °F 63% 30.24 in 10.0 mi West 9.2 mph 20.7 mph N/A   Scattered Clouds
2:55 PM 55.4 °F - 41.0 °F 58% 30.24 in 10.0 mi West 12.7 mph 25.3 mph N/A   Partly Cloudy
3:15 PM 53.6 °F - 41.0 °F 62% 30.25 in 10.0 mi WNW 4.6 mph 16.1 mph N/A   Mostly Cloudy
3:35 PM 55.4 °F - 42.8 °F 63% 30.26 in 10.0 mi WNW 10.4 mph - N/A   Overcast
3:55 PM 53.6 °F - 42.8 °F 67% 30.26 in 10.0 mi West 6.9 mph - N/A   Overcast
4:15 PM 53.6 °F - 41.0 °F 62% 30.26 in 10.0 mi WNW 9.2 mph 17.3 mph N/A   Overcast
4:35 PM 53.6 °F - 41.0 °F 62% 30.27 in 10.0 mi WNW 9.2 mph - N/A   Overcast
4:55 PM 53.6 °F - 41.0 °F 62% 30.26 in 10.0 mi West 8.1 mph - N/A   Mostly Cloudy
5:15 PM 53.6 °F - 42.8 °F 67% 30.27 in 9.0 mi WSW 9.2 mph - N/A   Mostly Cloudy
5:35 PM 53.6 °F - 41.0 °F 62% 30.26 in 9.0 mi West 6.9 mph - N/A   Overcast
5:55 PM 51.8 °F - 41.0 °F 67% 30.27 in 10.0 mi WNW 10.4 mph 16.1 mph N/A   Overcast
6:15 PM 50.0 °F - 42.8 °F 76% 30.27 in 10.0 mi WSW 6.9 mph - N/A   Overcast
6:35 PM 50.0 °F - 41.0 °F 71% 30.26 in 10.0 mi West 6.9 mph - N/A   Overcast
6:55 PM 50.0 °F - 41.0 °F 71% 30.26 in 10.0 mi NW 3.5 mph - N/A   Overcast
7:15 PM 50.0 °F - 41.0 °F 71% 30.26 in 8.0 mi SW 6.9 mph - N/A   Mostly Cloudy
7:35 PM 48.2 °F - 41.0 °F 76% 30.26 in 10.0 mi SW 3.5 mph - N/A   Mostly Cloudy
7:55 PM 48.2 °F - 41.0 °F 76% 30.26 in 10.0 mi SSW 4.6 mph - N/A   Overcast
8:15 PM 48.2 °F - 41.0 °F 76% 30.27 in 10.0 mi West 3.5 mph - N/A   Overcast
8:35 PM 48.2 °F - 41.0 °F 76% 30.28 in 10.0 mi South 3.5 mph - N/A   Overcast
8:55 PM 48.2 °F - 42.8 °F 82% 30.29 in 9.0 mi SSW 3.5 mph - N/A   Overcast
9:15 PM 48.2 °F - 42.8 °F 82% 30.29 in 10.0 mi SW 4.6 mph - N/A   Overcast
9:35 PM 48.2 °F - 41.0 °F 76% 30.30 in 10.0 mi West 4.6 mph - N/A   Overcast
9:55 PM 48.2 °F - 39.2 °F 71% 30.31 in 10.0 mi West 4.6 mph - N/A   Overcast
10:15 PM 48.2 °F - 41.0 °F 76% 30.31 in 10.0 mi SW 5.8 mph - N/A   Overcast
10:35 PM 48.2 °F - 41.0 °F 76% 30.32 in 10.0 mi SW 4.6 mph - N/A   Overcast
10:55 PM 46.4 °F 42.4 °F 41.0 °F 81% 30.31 in 10.0 mi SW 8.1 mph - N/A   Overcast
11:15 PM 46.4 °F 42.9 °F 41.0 °F 81% 30.31 in 10.0 mi WSW 6.9 mph - N/A   Overcast
11:35 PM 46.4 °F 43.5 °F 41.0 °F 81% 30.32 in 7.0 mi SW 5.8 mph - N/A   Overcast
11:55 PM 46.4 °F 44.3 °F 41.0 °F 81% 30.33 in 10.0 mi SW 4.6 mph - N/A   Overcast